Flag for U.S.A. Weather past 2 weeks in Gainesville, Florida, U.S.A.

Now
92 °F

Passing clouds.


Feels Like: 96 °F
Forecast: 75 / 88 °F
Wind: 12 mph from Northwest

Location: Gainesville Regional Airport

Current Time: Jul 29, 2014 at 5:45:19 PM

Latest Report: Jul 29, 2014 at 4:53 PM


Visibility: 10 mi

Pressure: 29.88 "Hg

Humidity: 46%

Dew point: 68 °F

Location of GainesvilleLocation

Historic Weather in Gainesville — Graph

°F

Gainesville temperature yesterday

Maximum temperature yesterday: 93 °F (at 2:53 PM)
Minimum temperature yesterday: 77 °F (at 4:53 AM)
Average temperature yesterday: 84 °F

Past Weeks' High & Low Weather Summary

 TemperatureHumidityPressure
High93 °F (Jul 28, 2:53 PM)100% (Jul 16, 4:53 AM)30.10 "Hg (Jul 16, 4:53 AM)
Low70 °F (Jul 17, 5:53 AM)39% (Jul 18, 3:53 PM)29.87 "Hg (Jul 16, 4:53 PM)
Average80 °F81%30.01 "Hg
* Reported Jul 14 3:53 PM — Jul 29 3:53 PM, Gainesville, Weather by CustomWeather, © 2014

Note: Actual official high and low records may vary slightly from our data, if they occured in-between our weather recording intervals... More about our weather records

Advertising

Gainesville weather history for previous 24 hours

 ConditionsComfort  
Time TempWeatherWind HumidityBarometerVisibility
3:53 PM
Jul 29
92 °FScattered clouds.9 mph52%29.88 "Hg10 mi
2:53 PM91 °FScattered clouds.12 mph54%29.90 "Hg10 mi
1:53 PM90 °FPassing clouds.9 mph57%29.92 "Hg10 mi
12:53 PM89 °FPassing clouds.10 mph63%29.93 "Hg10 mi
11:53 AM86 °FSunny.9 mph67%29.95 "Hg10 mi
10:53 AM85 °FScattered clouds.13 mph70%29.95 "Hg10 mi
9:53 AM83 °FSunny.6 mph74%29.95 "Hg10 mi
8:53 AM80 °FSunny.7 mph81%29.93 "Hg10 mi
7:53 AM78 °FPassing clouds.8 mph87%29.92 "Hg10 mi
6:53 AM76 °FClear.5 mph94%29.90 "Hg9 mi
5:53 AM78 °FPassing clouds.3 mph90%29.90 "Hg10 mi
4:53 AM78 °FClear.6 mph93%29.89 "Hg9 mi
3:53 AM79 °FPassing clouds.8 mph94%29.90 "Hg9 mi
2:53 AM81 °FPassing clouds.10 mph91%29.91 "Hg10 mi
1:53 AM80 °FPassing clouds.10 mph90%29.92 "Hg9 mi
12:53 AM80 °FPassing clouds.10 mph90%29.92 "Hg9 mi
11:53 PM
Jul 28
81 °FClear.12 mph88%29.92 "Hg10 mi
10:53 PM82 °FClear.13 mph85%29.94 "Hg10 mi
9:53 PM83 °FClear.15 mph79%29.94 "Hg10 mi
8:53 PM83 °FSunny.14 mph77%29.93 "Hg10 mi
7:53 PM84 °FSunny.15 mph74%29.93 "Hg10 mi
6:53 PM87 °FSunny.24 mph67%29.91 "Hg10 mi
5:53 PM88 °FSunny.16 mph65%29.92 "Hg10 mi
Weather by CustomWeather, © 2014

See weather overviewHow to use our weather pages